sat.trackr.live / text

‹ back to catalog

STARLINK-34045

NORAD 63979 · 2025-099AD

PAYLOAD ACTIVE UNKNOWN

§ Identity

Operator
Country
US
Launch date
2025-05-13
Launch site
AFETR
Launch vehicle
Mass (kg)
RCS (m²)

Purposes: comms

External: N2YO · Heavens-Above · Gunter

§ Orbital elements

Epoch: 2026-09-20T09:13:46.523136Z

Period
94.27 min
Inclination
42.9997°
Eccentricity
0.0001254
Mean motion
15.27589491 rev/d
Perigee alt
482.2 km
Apogee alt
483.9 km
Semi-major
6,861.2 km
B*
2.8709e-4
RAAN
153.0972°
Arg perigee
258.6406°
Mean anomaly
101.4305°
Rev number
7,706

§ Raw data

STARLINK-340451 63979U 25099AD  26263.38456624  .00007648  00000+0  28709-3 0  99992 63979  42.9997 153.0972 0001254 258.6406 101.4305 15.27589491 77061

JSON: /api/v1/satellites/63979 · /tle

For live sub-satellite position, see the globe view (requires WebGL).

§ Visibility from observer

Set your observer location to see the next 7 days of passes ≥ 10°. The values pass through the URL so the page stays shareable.

No JS? Fill the form by hand. The geolocation button needs JavaScript.